Regional Weather Roundup
Issued by NWS

Home | Current Version | Previous Version | Text Only | Print | Product List | Glossary Off
Versions: 1 2 3 4 5 6 7 8 9 10 11 12 13 14 15 16 17 18 19 20 21 22 23 24 25 26 27 28 29 30 31 32 33 34 35 36 37 38 39 40 41 42 43 44 45 46 47 48 49 50

000
ASUS43 KFSD 201810
RWRSD

WEATHER ROUNDUP FOR SOUTH DAKOTA
NATIONAL WEATHER SERVICE SIOUX FALLS SD
1200 PM CST SAT DEC 20 2014

NOTE: "FAIR" INDICATES FEW OR NO CLOUDS BELOW 12,000 FEET WITH NO
SIGNIFICANT WEATHER AND/OR OBSTRUCTIONS TO VISIBILITY.


SDZ001>005-009-010-012>017-201900-
NORTHWEST AND NORTH CENTRAL SOUTH DAKOTA

CITY           SKY/WX    TMP DP  RH WIND       PRES   REMARKS
BUFFALO          N/A     46  29  51 W14       29.82F
FAITH            N/A     34  29  82 S5        29.89F WCI  30
MOBRIDGE       CLOUDY    27  24  89 SE10      29.89F WCI  17
$$

SDZ012>016-024>037-041>051-057-063-072>074-201900-
SOUTHWEST AND SOUTH CENTRAL SOUTH DAKOTA

CITY           SKY/WX    TMP DP  RH WIND       PRES   REMARKS
RAPID CTY ARPT PTSUNNY   47  27  45 N3        29.92S
PIERRE         CLOUDY    24  20  84 SE5       29.95F WCI  18
CUSTER         CLOUDY    40  23  50 CALM      29.92S
ELLSWORTH AFB  PTSUNNY   47  28  45 N12       29.91F
PHILIP         CLOUDY    34  27  75 W6        29.93F WCI  29
PINE RIDGE     CLOUDY    39  26  59 W6        29.94F
SPEARFISH      FAIR      43  27  52 NW9       29.94S
WINNER         FAIR      33  23  66 SW9       29.95F WCI  25
$$

SDZ004>011-016>023-039-040-201900-
NORTHEAST SOUTH DAKOTA

CITY           SKY/WX    TMP DP  RH WIND       PRES   REMARKS
ABERDEEN       FOG       26  25  96 S14       29.99F VSB 3/4 WCI  14
WATERTOWN      CLOUDY    29  28  96 S14       29.99F FOG     WCI  18
SISSETON         N/A     30  28  92 SW12      30.01F WCI  20
$$

SDZ017-020-022-023-036>040-048>070-201900-
SOUTHEAST SOUTH DAKOTA

CITY           SKY/WX    TMP DP  RH WIND       PRES   REMARKS
SIOUX FALLS    CLOUDY    32  29  88 S10       30.06S WCI  24
HURON          FOG       27  26  96 SE12      30.00F VSB 3/4 WCI  17
CHAMBERLAIN    FLURRIES  23  22  96 SE8       29.97S WCI  14
MITCHELL       FOG       28  27  96 S12       30.03F VSB 1/2 WCI  18
YANKTON        CLOUDY    32  28  86 S12       30.06F WCI  23
$$

ABBREVIATIONS USED IN REMARKS
   TC - TEMPERATURE IN CELSIUS
  WCI - WIND CHILL INDEX
   HX - HEAT INDEX
  VSB - VISIBILITY



USA.gov is the U.S. government's official web portal to all federal, state and local government web resources and services.